| time (UTC) | temp F | wind direction | speed knots | gust knots | rain 1hr in | rain 24hr in | rain mn in | humidity % | barometer mb |
| 20260510041525 | 73 | 155 | 0.0 | 0.9 | 0.00 | 1.69 | 1.69 | 85 | 1011.7 |
| 20260510041028 | 73 | 155 | 0.0 | 4.3 | 0.00 | 1.69 | 1.69 | 85 | 1011.7 |
| 20260510040525 | 73 | 155 | 0.0 | 4.3 | 0.00 | 1.69 | 1.69 | 85 | 1011.6 |
| 20260510040030 | 73 | 155 | 1.7 | 3.5 | 0.00 | 1.69 | 1.69 | 85 | 1011.5 |
| 20260510035525 | 73 | 157 | 1.7 | 4.3 | 0.00 | 1.69 | 1.69 | 84 | 1011.6 |
| 20260510035025 | 73 | 157 | 1.7 | 4.3 | 0.00 | 1.69 | 1.69 | 84 | 1011.6 |
| 20260510034532 | 73 | 145 | 1.7 | 6.1 | 0.00 | 1.69 | 1.69 | 85 | 1011.6 |
| 20260510034024 | 73 | 132 | 2.6 | 6.1 | 0.00 | 1.69 | 1.69 | 84 | 1011.7 |
| 20260510033523 | 72 | 125 | 1.7 | 3.5 | 0.00 | 1.69 | 1.69 | 85 | 1011.8 |
| 20260510033024 | 72 | 121 | 0.9 | 3.5 | 0.00 | 1.69 | 1.69 | 86 | 1011.8 |
| 20260510032527 | 72 | 121 | 1.7 | 3.5 | 0.00 | 1.69 | 1.69 | 86 | 1011.8 |
| 20260510032023 | 72 | 121 | 0.9 | 3.5 | 0.00 | 1.69 | 1.69 | 86 | 1012.0 |
| 20260510031523 | 71 | 98 | 1.7 | 6.1 | 0.00 | 1.69 | 1.69 | 87 | 1011.9 |
| 20260510031021 | 71 | 125 | 1.7 | 6.1 | 0.00 | 1.69 | 1.69 | 88 | 1011.7 |
| 20260510030520 | 70 | 110 | 1.7 | 5.2 | 0.00 | 1.69 | 1.69 | 89 | 1011.5 |
| 20260510030019 | 70 | 82 | 0.9 | 3.5 | 0.00 | 1.69 | 1.69 | 89 | 1011.4 |
| 20260510025520 | 69 | 108 | 0.0 | 3.5 | 0.00 | 1.69 | 1.69 | 89 | 1011.3 |
| 20260510025019 | 69 | 84 | 0.0 | 3.5 | 0.00 | 1.69 | 1.69 | 89 | 1011.0 |
| 20260510024519 | 69 | 98 | 0.0 | 1.7 | 0.00 | 1.69 | 1.69 | 89 | 1010.8 |
| 20260510024018 | 69 | 98 | 0.0 | 2.6 | 0.00 | 1.69 | 1.69 | 89 | 1010.8 |
| 20260510023518 | 69 | 98 | 0.9 | 2.6 | 0.00 | 1.69 | 1.69 | 88 | 1010.7 |
| 20260510023018 | 69 | 98 | 0.0 | 1.7 | 0.00 | 1.69 | 1.69 | 88 | 1010.5 |
| 20260510022518 | 69 | 98 | 0.0 | 0.9 | 0.00 | 1.69 | 1.69 | 88 | 1010.3 |
| 20260510022017 | 69 | 98 | 0.0 | 2.6 | 0.00 | 1.69 | 1.69 | 88 | 1010.3 |
| 20260510021531 | 69 | 98 | 0.0 | 5.2 | 0.00 | 1.69 | 1.69 | 89 | 1010.2 |
| 20260510021020 | 69 | 98 | 0.9 | 5.2 | 0.00 | 1.69 | 1.69 | 89 | 1010.0 |
| 20260510020517 | 70 | 103 | 0.9 | 5.2 | 0.00 | 1.69 | 1.69 | 89 | 1010.0 |
| 20260510020018 | 70 | 105 | 1.7 | 6.1 | 0.00 | 1.69 | 1.69 | 90 | 1009.9 |
| 20260510015517 | 70 | 111 | 1.7 | 7.0 | 0.00 | 1.69 | 1.69 | 90 | 1009.6 |
| 20260510015022 | 70 | 134 | 2.6 | 7.0 | 0.00 | 1.69 | 1.69 | 91 | 1009.3 |
| 20260510014517 | 70 | 153 | 0.0 | 0.0 | 0.00 | 1.69 | 1.69 | 90 | 1009.0 |
| 20260510014018 | 70 | 153 | 0.0 | 0.0 | 0.00 | 1.69 | 1.69 | 90 | 1009.0 |
| 20260510013516 | 69 | 153 | 0.0 | 0.0 | 0.00 | 1.69 | 1.69 | 90 | 1009.0 |
| 20260510013016 | 69 | 153 | 0.0 | 0.9 | 0.00 | 1.69 | 1.69 | 89 | 1009.0 |
| 20260510012516 | 70 | 153 | 0.0 | 0.9 | 0.00 | 1.69 | 1.69 | 89 | 1008.9 |
| 20260510012015 | 69 | 153 | 0.0 | 2.6 | 0.00 | 1.69 | 1.69 | 89 | 1009.0 |
| 20260510011516 | 69 | 153 | 0.0 | 2.6 | 0.00 | 1.69 | 1.69 | 89 | 1009.1 |
| 20260510011015 | 69 | 153 | 0.0 | 1.7 | 0.01 | 1.69 | 1.69 | 89 | 1009.0 |
| 20260510010515 | 69 | 153 | 0.0 | 0.9 | 0.06 | 1.69 | 1.69 | 88 | 1008.6 |
| 20260510010015 | 69 | 153 | 0.0 | 0.9 | 0.18 | 1.69 | 1.69 | 88 | 1008.7 |
| 20260510005515 | 69 | 153 | 0.0 | 0.9 | 0.62 | 1.69 | 1.69 | 88 | 1008.8 |
| 20260510005014 | 69 | 153 | 0.0 | 1.7 | 1.12 | 1.69 | 1.69 | 88 | 1008.5 |
| 20260510004517 | 69 | 153 | 0.0 | 1.7 | 1.43 | 1.69 | 1.69 | 87 | 1008.7 |
| 20260510004014 | 69 | 153 | 0.9 | 3.5 | 1.46 | 1.69 | 1.69 | 86 | 1008.6 |
| 20260510003514 | 69 | 153 | 0.0 | 3.5 | 1.51 | 1.69 | 1.69 | 86 | 1008.6 |
| 20260510003014 | 69 | 272 | 0.0 | 3.5 | 1.64 | 1.69 | 1.69 | 86 | 1008.6 |
| 20260510002514 | 69 | 222 | 0.0 | 5.2 | 1.68 | 1.69 | 1.69 | 85 | 1008.6 |
| 20260510002013 | 69 | 172 | 3.5 | 5.2 | 1.68 | 1.69 | 1.69 | 83 | 1008.5 |
| 20260510001513 | 69 | 178 | 1.7 | 7.8 | 1.68 | 1.69 | 1.69 | 82 | 1008.7 |
| 20260510001015 | 69 | 109 | 4.3 | 8.7 | 1.66 | 1.67 | 1.67 | 81 | 1009.0 |
| 20260510000514 | 69 | 150 | 4.3 | 16.5 | 1.61 | 1.62 | 1.62 | 78 | 1009.0 |
| 20260510000017 | 70 | 167 | 7.8 | 16.5 | 1.49 | 1.49 | 1.49 | 73 | 1009.4 |
| 20260509235510 | 71 | 169 | 2.6 | 12.2 | 0.95 | 0.95 | 0.95 | 77 | 1011.4 |
| 20260509235009 | 74 | 92 | 2.6 | 12.2 | 0.49 | 0.49 | 0.49 | 77 | 1010.2 |
| 20260509234508 | 77 | 183 | 1.7 | 7.0 | 0.25 | 0.25 | 0.25 | 76 | 1009.2 |
| 20260509234007 | 79 | 186 | 0.0 | 6.1 | 0.23 | 0.23 | 0.23 | 77 | 1008.8 |
| 20260509233506 | 80 | 293 | 1.7 | 7.0 | 0.16 | 0.16 | 0.16 | 78 | 1008.6 |
| 20260509233006 | 81 | 237 | 3.5 | 7.0 | 0.04 | 0.04 | 0.04 | 76 | 1008.1 |
| 20260509232506 | 82 | 188 | 0.9 | 3.5 | 0.01 | 0.01 | 0.01 | 75 | 1008.1 |
| 20260509232007 | 83 | 188 | 0.9 | 6.1 | 0.01 | 0.01 | 0.01 | 74 | 1008.2 |
| 20260509231506 | 83 | 174 | 0.9 | 6.1 | 0.01 | 0.01 | 0.01 | 74 | 1008.0 |
| 20260509231005 | 84 | 175 | 2.6 | 5.2 | 0.01 | 0.01 | 0.01 | 72 | 1008.2 |
| 20260509230505 | 86 | 164 | 1.7 | 4.3 | 0.01 | 0.01 | 0.01 | 71 | 1008.1 |
| 20260509230006 | 87 | 159 | 1.7 | 4.3 | 0.00 | 0.00 | 0.00 | 66 | 1008.0 |
| 20260509225506 | 88 | 157 | 1.7 | 4.3 | 0.00 | 0.00 | 0.00 | 62 | 1007.9 |
| 20260509225005 | 88 | 113 | 0.9 | 2.6 | 0.00 | 0.00 | 0.00 | 59 | 1007.7 |
| 20260509224505 | 88 | 113 | 0.0 | 2.6 | 0.00 | 0.00 | 0.00 | 59 | 1007.7 |
| 20260509224006 | 88 | 113 | 0.9 | 2.6 | 0.00 | 0.00 | 0.00 | 59 | 1007.8 |
| 20260509223505 | 88 | 113 | 0.0 | 2.6 | 0.00 | 0.00 | 0.00 | 59 | 1007.8 |
| 20260509223004 | 88 | 113 | 0.9 | 3.5 | 0.00 | 0.00 | 0.00 | 60 | 1007.8 |
| 20260509222504 | 88 | 130 | 0.9 | 5.2 | 0.00 | 0.00 | 0.00 | 60 | 1007.7 |
| 20260509222006 | 88 | 108 | 1.7 | 5.2 | 0.00 | 0.00 | 0.00 | 58 | 1007.7 |
| 20260509221504 | 89 | 113 | 1.7 | 4.3 | 0.00 | 0.00 | 0.00 | 58 | 1007.6 |
| 20260509221004 | 89 | 126 | 0.9 | 5.2 | 0.00 | 0.00 | 0.00 | 59 | 1007.7 |
| 20260509220503 | 88 | 130 | 1.7 | 5.2 | 0.00 | 0.00 | 0.00 | 60 | 1007.7 |
| 20260509220003 | 88 | 123 | 2.6 | 5.2 | 0.00 | 0.00 | 0.00 | 60 | 1007.6 |
| 20260509215503 | 88 | 109 | 2.6 | 5.2 | 0.00 | 0.00 | 0.00 | 59 | 1007.7 |
| 20260509215003 | 88 | 128 | 1.7 | 5.2 | 0.00 | 0.00 | 0.00 | 58 | 1007.6 |
| 20260509214502 | 89 | 125 | 1.7 | 5.2 | 0.00 | 0.00 | 0.00 | 58 | 1007.7 |
| 20260509214003 | 89 | 137 | 1.7 | 3.5 | 0.00 | 0.00 | 0.00 | 58 | 1007.6 |
| 20260509213501 | 90 | 134 | 1.7 | 4.3 | 0.00 | 0.00 | 0.00 | 57 | 1007.6 |
| 20260509213002 | 91 | 25 | 0.9 | 4.3 | 0.00 | 0.00 | 0.00 | 55 | 1007.6 |
| 20260509212500 | 92 | 355 | 1.7 | 5.2 | 0.00 | 0.00 | 0.00 | 55 | 1007.7 |
| 20260509212100 | 92 | 355 | 1.7 | 5.2 | 0.00 | 0.00 | 0.00 | 55 | 1007.7 |
| 20260509211601 | 91 | 265 | 0.9 | 2.6 | 0.00 | 0.00 | 0.00 | 55 | 1007.7 |
| 20260509211104 | 91 | 264 | 0.9 | 2.6 | 0.00 | 0.00 | 0.00 | 57 | 1007.7 |
| 20260509210600 | 91 | 263 | 0.0 | 2.6 | 0.00 | 0.00 | 0.00 | 55 | 1007.8 |
| 20260509210115 | 92 | 298 | 0.9 | 4.3 | 0.00 | 0.00 | 0.00 | 56 | 1007.9 |
| 20260509205557 | 92 | 299 | 0.9 | 4.3 | 0.00 | 0.00 | 0.00 | 55 | 1008.0 |
| 20260509205057 | 92 | 311 | 0.9 | 7.0 | 0.00 | 0.00 | 0.00 | 54 | 1008.1 |
| 20260509204559 | 92 | 313 | 2.6 | 7.0 | 0.00 | 0.00 | 0.00 | 54 | 1008.2 |
| 20260509204056 | 92 | 327 | 0.9 | 5.2 | 0.00 | 0.00 | 0.00 | 52 | 1008.3 |
| 20260509203555 | 93 | 305 | 1.7 | 5.2 | 0.00 | 0.00 | 0.00 | 53 | 1008.3 |
| 20260509203055 | 93 | 11 | 1.7 | 5.2 | 0.00 | 0.00 | 0.00 | 52 | 1008.3 |
| 20260509202554 | 93 | 302 | 2.6 | 4.3 | 0.00 | 0.00 | 0.00 | 52 | 1008.3 |
| 20260509202054 | 93 | 278 | 0.0 | 2.6 | 0.00 | 0.00 | 0.00 | 52 | 1008.4 |
| 20260509201600 | 93 | 245 | 0.0 | 2.6 | 0.00 | 0.00 | 0.00 | 51 | 1008.4 |
| 20260509201052 | 94 | 254 | 0.0 | 2.6 | 0.00 | 0.00 | 0.00 | 50 | 1008.6 |
| 20260509200551 | 93 | 330 | 0.0 | 2.6 | 0.00 | 0.00 | 0.00 | 51 | 1008.6 |
| 20260509200100 | 93 | 330 | 0.0 | 5.2 | 0.00 | 0.00 | 0.00 | 52 | 1008.6 |
| 20260509195548 | 93 | 28 | 0.9 | 5.2 | 0.00 | 0.00 | 0.00 | 50 | 1008.7 |
| 20260509195048 | 93 | 267 | 0.9 | 5.2 | 0.00 | 0.00 | 0.00 | 53 | 1008.8 |
| 20260509194547 | 92 | 303 | 1.7 | 5.2 | 0.00 | 0.00 | 0.00 | 52 | 1008.8 |
| 20260509194046 | 93 | 325 | 0.9 | 3.5 | 0.00 | 0.00 | 0.00 | 52 | 1008.9 |
| 20260509193546 | 92 | 328 | 1.7 | 3.5 | 0.00 | 0.00 | 0.00 | 52 | 1008.9 |
| 20260509193046 | 92 | 342 | 0.9 | 3.5 | 0.00 | 0.00 | 0.00 | 53 | 1008.9 |
| 20260509192545 | 92 | 32 | 0.9 | 5.2 | 0.00 | 0.00 | 0.00 | 52 | 1008.9 |
| 20260509192046 | 92 | 335 | 0.9 | 5.2 | 0.00 | 0.00 | 0.00 | 52 | 1008.9 |
| 20260509191545 | 92 | 19 | 0.9 | 3.5 | 0.00 | 0.00 | 0.00 | 52 | 1008.9 |
| 20260509191046 | 92 | 329 | 0.9 | 3.5 | 0.00 | 0.00 | 0.00 | 53 | 1009.0 |
| 20260509190544 | 92 | 17 | 0.9 | 5.2 | 0.00 | 0.00 | 0.00 | 54 | 1009.0 |
| 20260509190051 | 93 | 344 | 2.6 | 5.2 | 0.00 | 0.00 | 0.00 | 52 | 1009.0 |
| 20260509185543 | 92 | 339 | 0.9 | 3.5 | 0.00 | 0.00 | 0.00 | 54 | 1009.1 |
| 20260509185042 | 92 | 331 | 0.0 | 2.6 | 0.00 | 0.00 | 0.00 | 54 | 1009.2 |
| 20260509184540 | 91 | 329 | 0.9 | 3.5 | 0.00 | 0.00 | 0.00 | 56 | 1009.2 |
| 20260509184039 | 92 | 178 | 0.9 | 4.3 | 0.00 | 0.00 | 0.00 | 55 | 1009.2 |
| 20260509183538 | 91 | 265 | 0.0 | 3.5 | 0.00 | 0.00 | 0.00 | 57 | 1009.4 |
| 20260509183039 | 90 | 170 | 0.0 | 3.5 | 0.00 | 0.00 | 0.00 | 57 | 1009.5 |
| 20260509182537 | 89 | 246 | 0.0 | 4.3 | 0.00 | 0.00 | 0.00 | 58 | 1009.6 |
| 20260509182035 | 88 | 155 | 0.0 | 4.3 | 0.00 | 0.00 | 0.00 | 61 | 1009.6 |
| 20260509181538 | 88 | 182 | 0.9 | 4.3 | 0.00 | 0.00 | 0.00 | 60 | 1009.7 |
| 20260509181035 | 88 | 188 | 0.9 | 6.1 | 0.00 | 0.00 | 0.00 | 62 | 1009.7 |
| 20260509180535 | 88 | 166 | 3.5 | 6.1 | 0.00 | 0.00 | 0.00 | 60 | 1009.8 |
| 20260509180035 | 89 | 174 | 0.0 | 6.1 | 0.00 | 0.00 | 0.00 | 59 | 1010.0 |
| 20260509175534 | 89 | 312 | 0.9 | 6.1 | 0.00 | 0.00 | 0.00 | 61 | 1010.1 |
| 20260509175033 | 89 | 227 | 0.9 | 7.8 | 0.00 | 0.00 | 0.00 | 62 | 1010.1 |
| 20260509174532 | 88 | 149 | 0.0 | 7.8 | 0.00 | 0.00 | 0.00 | 64 | 1010.2 |
| 20260509174031 | 87 | 116 | 1.7 | 7.0 | 0.00 | 0.00 | 0.00 | 66 | 1010.3 |
| 20260509173532 | 86 | 189 | 3.5 | 7.8 | 0.00 | 0.00 | 0.00 | 65 | 1010.4 |
| 20260509173028 | 86 | 187 | 2.6 | 7.8 | 0.00 | 0.00 | 0.00 | 68 | 1010.5 |
| 20260509172527 | 85 | 183 | 0.9 | 9.6 | 0.00 | 0.00 | 0.00 | 71 | 1010.4 |
| 20260509172027 | 84 | 151 | 5.2 | 9.6 | 0.00 | 0.00 | 0.00 | 70 | 1010.4 |
| 20260509171535 | 84 | 138 | 2.6 | 7.0 | 0.00 | 0.00 | 0.00 | 70 | 1010.5 |
| 20260509171026 | 84 | 173 | 1.7 | 6.1 | 0.00 | 0.00 | 0.00 | 70 | 1010.5 |
| 20260509170528 | 84 | 173 | 3.5 | 6.1 | 0.00 | 0.00 | 0.00 | 73 | 1010.8 |
| 20260509170030 | 84 | 148 | 0.9 | 5.2 | 0.00 | 0.00 | 0.00 | 73 | 1010.8 |
| 20260509165525 | 84 | 162 | 0.9 | 5.2 | 0.00 | 0.00 | 0.00 | 72 | 1010.9 |
| 20260509165026 | 84 | 159 | 0.9 | 4.3 | 0.00 | 0.00 | 0.00 | 74 | 1010.8 |
| 20260509164522 | 84 | 171 | 0.9 | 4.3 | 0.00 | 0.00 | 0.00 | 74 | 1010.8 |
| 20260509164024 | 83 | 163 | 0.9 | 4.3 | 0.00 | 0.00 | 0.00 | 77 | 1010.8 |
| 20260509163518 | 81 | 100 | 0.9 | 3.5 | 0.00 | 0.00 | 0.00 | 78 | 1010.9 |
| 20260509163017 | 80 | 15 | 0.0 | 1.7 | 0.00 | 0.00 | 0.00 | 79 | 1010.8 |
| 20260509162516 | 80 | 11 | 0.0 | 1.7 | 0.00 | 0.00 | 0.00 | 80 | 1010.8 |
| 20260509162016 | 80 | 11 | 0.0 | 1.7 | 0.00 | 0.00 | 0.00 | 81 | 1010.8 |
| 20260509161515 | 80 | 11 | 0.9 | 3.5 | 0.00 | 0.00 | 0.00 | 82 | 1010.7 |
| 20260509161013 | 79 | 355 | 0.0 | 3.5 | 0.00 | 0.00 | 0.00 | 82 | 1010.8 |
| 20260509160513 | 79 | 9 | 0.9 | 2.6 | 0.00 | 0.00 | 0.00 | 83 | 1010.8 |
| 20260509160013 | 79 | 157 | 0.0 | 2.6 | 0.00 | 0.00 | 0.00 | 83 | 1010.8 |
| 20260509155513 | 78 | 157 | 0.0 | 2.6 | 0.00 | 0.00 | 0.00 | 83 | 1010.9 |
| 20260509155011 | 78 | 157 | 0.0 | 1.7 | 0.00 | 0.00 | 0.00 | 84 | 1010.8 |
| 20260509154516 | 78 | 157 | 0.0 | 1.7 | 0.00 | 0.00 | 0.00 | 85 | 1010.8 |
| 20260509154011 | 78 | 157 | 0.0 | 1.7 | 0.00 | 0.00 | 0.00 | 85 | 1010.7 |
| 20260509153511 | 78 | 157 | 0.0 | 1.7 | 0.00 | 0.00 | 0.00 | 85 | 1010.8 |
| 20260509153009 | 78 | 157 | 0.0 | 2.6 | 0.00 | 0.00 | 0.00 | 86 | 1010.6 |
| 20260509152509 | 78 | 157 | 0.0 | 2.6 | 0.00 | 0.00 | 0.00 | 86 | 1010.6 |
| 20260509152009 | 78 | 157 | 0.0 | 1.7 | 0.00 | 0.00 | 0.00 | 87 | 1010.8 |
| 20260509151507 | 77 | 157 | 0.0 | 2.6 | 0.00 | 0.00 | 0.00 | 87 | 1010.8 |
| 20260509151006 | 77 | 157 | 0.9 | 2.6 | 0.00 | 0.00 | 0.00 | 87 | 1010.6 |
| 20260509150507 | 77 | 157 | 0.0 | 2.6 | 0.00 | 0.00 | 0.00 | 87 | 1010.6 |
| 20260509150015 | 77 | 157 | 0.0 | 2.6 | 0.00 | 0.00 | 0.00 | 88 | 1010.6 |
| 20260509145505 | 77 | 157 | 0.0 | 2.6 | 0.00 | 0.00 | 0.00 | 89 | 1010.4 |
| 20260509145004 | 76 | 157 | 0.9 | 2.6 | 0.00 | 0.00 | 0.00 | 89 | 1010.4 |
| 20260509144502 | 76 | 157 | 0.9 | 1.7 | 0.00 | 0.00 | 0.00 | 89 | 1010.4 |
| 20260509144001 | 76 | 157 | 0.0 | 1.7 | 0.00 | 0.00 | 0.00 | 90 | 1010.2 |
| 20260509143501 | 76 | 157 | 0.0 | 1.7 | 0.00 | 0.00 | 0.00 | 90 | 1010.2 |
| 20260509143001 | 76 | 157 | 0.0 | 0.9 | 0.00 | 0.00 | 0.00 | 90 | 1010.2 |
| 20260509142600 | 75 | 157 | 0.0 | 1.7 | 0.00 | 0.00 | 0.00 | 91 | 1010.1 |
| 20260509142059 | 75 | 157 | 0.0 | 1.7 | 0.00 | 0.00 | 0.00 | 92 | 1010.0 |
| 20260509141600 | 75 | 157 | 0.0 | 0.9 | 0.00 | 0.00 | 0.00 | 92 | 1009.8 |
| 20260509141100 | 75 | 157 | 0.0 | 1.7 | 0.00 | 0.00 | 0.00 | 92 | 1009.9 |
| 20260509140558 | 75 | 157 | 0.0 | 2.6 | 0.00 | 0.00 | 0.00 | 91 | 1009.8 |
| 20260509140104 | 75 | 157 | 0.9 | 4.3 | 0.00 | 0.00 | 0.00 | 91 | 1009.6 |
| 20260509135558 | 75 | 157 | 0.9 | 4.3 | 0.00 | 0.00 | 0.00 | 92 | 1009.6 |
| 20260509135057 | 75 | 157 | 0.9 | 2.6 | 0.00 | 0.00 | 0.00 | 92 | 1009.9 |
| 20260509134626 | 75 | 157 | 0.0 | 0.9 | 0.00 | 0.00 | 0.00 | 92 | 1010.0 |
| 20260509134059 | 75 | 157 | 0.0 | 0.9 | 0.00 | 0.00 | 0.00 | 92 | 1010.3 |
| 20260509133557 | 75 | 157 | 0.0 | 4.3 | 0.00 | 0.00 | 0.00 | 92 | 1010.6 |
| 20260509133059 | 75 | 157 | 1.7 | 4.3 | 0.00 | 0.00 | 0.00 | 92 | 1010.5 |
| 20260509132656 | 75 | 157 | 1.7 | 4.3 | 0.00 | 0.00 | 0.00 | 93 | 1010.4 |
| 20260509132056 | 75 | 149 | 0.0 | 2.6 | 0.00 | 0.00 | 0.00 | 93 | 1010.8 |
| 20260509131555 | 75 | 149 | 0.9 | 4.3 | 0.00 | 0.00 | 0.00 | 93 | 1010.7 |
| 20260509131054 | 74 | 148 | 0.9 | 4.3 | 0.00 | 0.00 | 0.00 | 93 | 1010.8 |
| 20260509130554 | 74 | 148 | 0.9 | 1.7 | 0.00 | 0.00 | 0.00 | 94 | 1011.0 |
| 20260509130054 | 74 | 148 | 0.0 | 0.9 | 0.00 | 0.00 | 0.00 | 94 | 1011.3 |
| 20260509125553 | 74 | 148 | 0.0 | 1.7 | 0.00 | 0.00 | 0.00 | 94 | 1011.1 |
| 20260509125051 | 74 | 148 | 0.0 | 2.6 | 0.00 | 0.00 | 0.00 | 94 | 1010.7 |
| 20260509124551 | 74 | 148 | 0.0 | 2.6 | 0.00 | 0.00 | 0.00 | 94 | 1010.5 |
| 20260509124050 | 74 | 148 | 0.9 | 2.6 | 0.00 | 0.00 | 0.00 | 94 | 1010.6 |
| 20260509123549 | 74 | 148 | 0.0 | 1.7 | 0.00 | 0.00 | 0.00 | 94 | 1010.7 |
| 20260509123051 | 74 | 148 | 0.0 | 0.9 | 0.00 | 0.00 | 0.00 | 94 | 1010.7 |
| 20260509122549 | 74 | 148 | 0.0 | 0.9 | 0.00 | 0.00 | 0.00 | 94 | 1010.5 |
| 20260509122048 | 73 | 148 | 0.0 | 0.9 | 0.00 | 0.00 | 0.00 | 94 | 1010.5 |
| 20260509121552 | 73 | 148 | 0.0 | 0.9 | 0.00 | 0.00 | 0.00 | 94 | 1010.6 |
| 20260509121049 | 73 | 148 | 0.0 | 0.9 | 0.00 | 0.00 | 0.00 | 94 | 1010.7 |
| 20260509120549 | 73 | 148 | 0.0 | 0.9 | 0.00 | 0.00 | 0.00 | 94 | 1010.7 |
| 20260509120049 | 73 | 148 | 0.0 | 0.9 | 0.00 | 0.00 | 0.00 | 94 | 1010.6 |
| 20260509115547 | 73 | 148 | 0.0 | 0.9 | 0.00 | 0.00 | 0.00 | 94 | 1010.6 |
| 20260509115047 | 73 | 148 | 0.0 | 0.0 | 0.00 | 0.00 | 0.00 | 94 | 1010.2 |
| 20260509114547 | 73 | 148 | 0.0 | 1.7 | 0.00 | 0.00 | 0.00 | 94 | 1010.3 |
| 20260509114047 | 73 | 148 | 0.0 | 1.7 | 0.00 | 0.00 | 0.00 | 93 | 1010.5 |
| 20260509113547 | 73 | 148 | 0.0 | 0.9 | 0.00 | 0.00 | 0.00 | 93 | 1010.5 |
| 20260509113051 | 73 | 148 | 0.0 | 1.7 | 0.00 | 0.00 | 0.00 | 93 | 1010.4 |
| 20260509112548 | 73 | 148 | 0.0 | 1.7 | 0.00 | 0.00 | 0.00 | 93 | 1010.4 |
| 20260509112046 | 73 | 148 | 0.0 | 1.7 | 0.00 | 0.00 | 0.00 | 93 | 1010.5 |
| 20260509111546 | 73 | 148 | 0.9 | 1.7 | 0.00 | 0.00 | 0.00 | 93 | 1010.4 |
| 20260509111045 | 73 | 148 | 0.9 | 1.7 | 0.00 | 0.00 | 0.00 | 93 | 1010.3 |
| 20260509110548 | 73 | 148 | 0.0 | 1.7 | 0.00 | 0.00 | 0.00 | 93 | 1010.2 |
| 20260509110045 | 73 | 148 | 0.0 | 0.9 | 0.00 | 0.00 | 0.00 | 93 | 1010.1 |
| 20260509105545 | 73 | 148 | 0.0 | 0.9 | 0.00 | 0.00 | 0.00 | 93 | 1010.0 |
| 20260509105044 | 73 | 148 | 0.0 | 0.9 | 0.00 | 0.00 | 0.00 | 93 | 1009.9 |
| 20260509104544 | 73 | 148 | 0.0 | 1.7 | 0.00 | 0.00 | 0.00 | 93 | 1009.8 |
| 20260509104043 | 73 | 148 | 0.0 | 1.7 | 0.00 | 0.00 | 0.00 | 93 | 1009.8 |
| 20260509103543 | 73 | 148 | 0.0 | 2.6 | 0.00 | 0.00 | 0.00 | 93 | 1009.7 |
| 20260509103044 | 73 | 148 | 0.9 | 2.6 | 0.00 | 0.00 | 0.00 | 93 | 1009.7 |
| 20260509102543 | 73 | 148 | 0.9 | 1.7 | 0.00 | 0.00 | 0.00 | 93 | 1009.8 |
| 20260509102043 | 73 | 148 | 0.0 | 0.9 | 0.00 | 0.00 | 0.00 | 93 | 1009.9 |
| 20260509101551 | 73 | 148 | 0.0 | 1.7 | 0.00 | 0.00 | 0.00 | 93 | 1010.0 |
| 20260509101042 | 73 | 148 | 0.0 | 1.7 | 0.00 | 0.00 | 0.00 | 93 | 1009.8 |
| 20260509100542 | 73 | 148 | 0.0 | 0.9 | 0.00 | 0.00 | 0.00 | 93 | 1009.8 |
| 20260509100042 | 74 | 148 | 0.0 | 0.9 | 0.00 | 0.00 | 0.00 | 93 | 1009.8 |
| 20260509095542 | 74 | 148 | 0.0 | 0.9 | 0.00 | 0.00 | 0.00 | 93 | 1009.7 |
| 20260509095042 | 74 | 148 | 0.0 | 0.9 | 0.00 | 0.00 | 0.00 | 93 | 1009.6 |
| 20260509094543 | 74 | 148 | 0.0 | 0.9 | 0.00 | 0.00 | 0.00 | 93 | 1009.5 |
| 20260509094041 | 74 | 148 | 0.0 | 0.9 | 0.00 | 0.00 | 0.00 | 93 | 1009.5 |
| 20260509093540 | 74 | 148 | 0.0 | 0.9 | 0.00 | 0.00 | 0.00 | 93 | 1009.4 |
| 20260509093041 | 74 | 148 | 0.0 | 0.9 | 0.00 | 0.00 | 0.00 | 93 | 1009.4 |
| 20260509092540 | 74 | 148 | 0.0 | 0.9 | 0.00 | 0.00 | 0.00 | 93 | 1009.4 |
| 20260509092043 | 74 | 148 | 0.0 | 0.9 | 0.00 | 0.00 | 0.00 | 93 | 1009.5 |
| 20260509091540 | 74 | 148 | 0.0 | 0.9 | 0.00 | 0.00 | 0.00 | 93 | 1009.7 |
| 20260509091043 | 74 | 148 | 0.0 | 0.0 | 0.00 | 0.00 | 0.00 | 93 | 1009.9 |
| 20260509090539 | 74 | 148 | 0.0 | 0.9 | 0.00 | 0.00 | 0.00 | 93 | 1009.9 |
| 20260509090039 | 74 | 148 | 0.0 | 0.9 | 0.00 | 0.00 | 0.00 | 93 | 1010.0 |
| 20260509085539 | 74 | 148 | 0.0 | 1.7 | 0.00 | 0.00 | 0.00 | 93 | 1009.9 |
| 20260509085039 | 74 | 148 | 0.0 | 1.7 | 0.00 | 0.00 | 0.00 | 93 | 1009.9 |
| 20260509084539 | 74 | 148 | 0.0 | 1.7 | 0.00 | 0.00 | 0.00 | 93 | 1010.0 |
| 20260509084039 | 74 | 148 | 0.0 | 0.9 | 0.00 | 0.00 | 0.00 | 93 | 1009.9 |
| 20260509083537 | 74 | 148 | 0.0 | 0.9 | 0.00 | 0.00 | 0.00 | 93 | 1009.7 |
| 20260509083045 | 74 | 148 | 0.0 | 0.9 | 0.00 | 0.00 | 0.00 | 93 | 1009.8 |
| 20260509082537 | 74 | 148 | 0.0 | 0.9 | 0.00 | 0.00 | 0.00 | 93 | 1009.7 |
| 20260509082037 | 74 | 148 | 0.0 | 1.7 | 0.00 | 0.00 | 0.00 | 93 | 1009.8 |
| 20260509081538 | 74 | 148 | 0.0 | 1.7 | 0.00 | 0.00 | 0.00 | 93 | 1009.6 |
| 20260509081038 | 74 | 148 | 0.0 | 1.7 | 0.00 | 0.00 | 0.00 | 93 | 1009.6 |
| 20260509080537 | 74 | 148 | 0.0 | 1.7 | 0.00 | 0.00 | 0.00 | 93 | 1009.7 |
| 20260509080037 | 74 | 148 | 0.0 | 2.6 | 0.00 | 0.00 | 0.00 | 93 | 1009.7 |
| 20260509075538 | 74 | 148 | 0.0 | 2.6 | 0.00 | 0.00 | 0.00 | 93 | 1009.8 |
| 20260509075034 | 74 | 148 | 0.0 | 2.6 | 0.00 | 0.00 | 0.00 | 93 | 1009.7 |
| 20260509074531 | 74 | 148 | 0.9 | 2.6 | 0.00 | 0.00 | 0.00 | 93 | 1009.7 |
| 20260509074029 | 74 | 148 | 0.9 | 4.3 | 0.00 | 0.00 | 0.00 | 93 | 1009.6 |
| 20260509073531 | 74 | 163 | 2.6 | 6.1 | 0.00 | 0.00 | 0.00 | 93 | 1009.4 |
| 20260509073027 | 74 | 165 | 2.6 | 6.1 | 0.00 | 0.00 | 0.00 | 93 | 1009.5 |
| 20260509072527 | 74 | 146 | 1.7 | 4.3 | 0.00 | 0.00 | 0.00 | 93 | 1009.4 |
| 20260509072028 | 74 | 134 | 1.7 | 4.3 | 0.00 | 0.00 | 0.00 | 93 | 1009.7 |
| 20260509071525 | 74 | 161 | 2.6 | 4.3 | 0.00 | 0.00 | 0.00 | 93 | 1009.9 |
| 20260509071025 | 74 | 132 | 1.7 | 3.5 | 0.00 | 0.00 | 0.00 | 93 | 1009.9 |
| 20260509070526 | 74 | 129 | 0.9 | 2.6 | 0.00 | 0.00 | 0.00 | 93 | 1010.1 |
| 20260509070023 | 74 | 129 | 0.9 | 1.7 | 0.00 | 0.00 | 0.00 | 93 | 1010.1 |
| 20260509065522 | 74 | 129 | 0.0 | 1.7 | 0.00 | 0.00 | 0.00 | 92 | 1010.1 |
| 20260509065022 | 74 | 129 | 0.0 | 1.7 | 0.00 | 0.00 | 0.00 | 92 | 1010.2 |
| 20260509064520 | 74 | 129 | 0.0 | 1.7 | 0.00 | 0.00 | 0.00 | 93 | 1010.1 |
| 20260509064021 | 74 | 129 | 0.0 | 0.9 | 0.00 | 0.00 | 0.00 | 92 | 1010.2 |
| 20260509063521 | 74 | 129 | 0.0 | 1.7 | 0.00 | 0.00 | 0.00 | 93 | 1010.2 |
| 20260509063018 | 74 | 129 | 0.0 | 1.7 | 0.00 | 0.00 | 0.00 | 93 | 1010.0 |
| 20260509062517 | 74 | 129 | 0.0 | 1.7 | 0.00 | 0.00 | 0.00 | 92 | 1010.2 |
| 20260509062018 | 74 | 129 | 0.0 | 1.7 | 0.00 | 0.00 | 0.00 | 92 | 1010.3 |
| 20260509061516 | 74 | 129 | 0.0 | 2.6 | 0.00 | 0.00 | 0.00 | 92 | 1010.4 |
| 20260509061016 | 74 | 129 | 0.0 | 2.6 | 0.00 | 0.00 | 0.00 | 92 | 1010.3 |
| 20260509060516 | 74 | 129 | 0.0 | 2.6 | 0.00 | 0.00 | 0.00 | 92 | 1010.2 |
| 20260509060016 | 74 | 129 | 0.9 | 2.6 | 0.00 | 0.00 | 0.00 | 92 | 1010.2 |
| 20260509055515 | 74 | 129 | 0.9 | 3.5 | 0.00 | 0.00 | 0.00 | 92 | 1010.3 |
| 20260509055014 | 74 | 129 | 0.9 | 3.5 | 0.00 | 0.00 | 0.00 | 92 | 1010.4 |
| 20260509054513 | 74 | 124 | 1.7 | 3.5 | 0.00 | 0.00 | 0.00 | 92 | 1010.5 |
| 20260509054013 | 74 | 115 | 0.9 | 3.5 | 0.00 | 0.00 | 0.00 | 92 | 1010.4 |
| 20260509053514 | 74 | 114 | 0.0 | 2.6 | 0.00 | 0.00 | 0.00 | 92 | 1010.4 |
| 20260509053013 | 74 | 114 | 0.9 | 2.6 | 0.00 | 0.00 | 0.00 | 92 | 1010.3 |
| 20260509052514 | 74 | 96 | 0.0 | 3.5 | 0.00 | 0.00 | 0.00 | 92 | 1010.4 |
| 20260509052011 | 74 | 96 | 0.9 | 3.5 | 0.00 | 0.00 | 0.00 | 92 | 1010.4 |
| 20260509051514 | 73 | 118 | 0.9 | 3.5 | 0.00 | 0.00 | 0.00 | 92 | 1010.4 |
| 20260509051009 | 73 | 117 | 0.9 | 2.6 | 0.00 | 0.00 | 0.00 | 91 | 1010.4 |
| 20260509050508 | 73 | 117 | 0.0 | 3.5 | 0.00 | 0.00 | 0.00 | 91 | 1010.4 |
| 20260509050006 | 73 | 117 | 0.9 | 3.5 | 0.00 | 0.00 | 0.00 | 91 | 1010.5 |
| 20260509045507 | 73 | 113 | 0.0 | 3.5 | 0.00 | 0.00 | 0.00 | 91 | 1010.4 |
| 20260509045006 | 73 | 114 | 1.7 | 5.2 | 0.00 | 0.00 | 0.00 | 91 | 1010.4 |
| 20260509044505 | 73 | 116 | 1.7 | 5.2 | 0.00 | 0.00 | 0.00 | 91 | 1010.5 |
| 20260509044006 | 73 | 119 | 0.9 | 3.5 | 0.00 | 0.00 | 0.00 | 91 | 1010.6 |
| 20260509043508 | 73 | 119 | 0.9 | 3.5 | 0.00 | 0.00 | 0.00 | 91 | 1010.6 |
| 20260509043005 | 73 | 165 | 0.9 | 4.3 | 0.00 | 0.00 | 0.00 | 91 | 1010.6 |
| 20260509042505 | 73 | 165 | 0.9 | 4.3 | 0.00 | 0.00 | 0.00 | 91 | 1010.6 |
| 20260509042005 | 73 | 168 | 1.7 | 4.3 | 0.00 | 0.00 | 0.00 | 91 | 1010.5 |